Погода в Туле

Хотите узнать прогноз погоды в Туле? Тогда Вам сюда: Погода в Туле

Поиск расширенной информации на нашем сайте:

Полезная информация:

Новости сайта



14.11.2019
Обновлён Долгосрочный прогноз погоды по России и другим странам хСССР на ноябрь-декабрь 2019 года.
Опубликованы прогностические карты: Предварительный прогноз на декабрь 2019 года, Предварительный прогноз на январь 2020 года, Предварительная схема синоптических процессов на декабрь 2019 г..

11.11.2019
Обновлены Долгосрочный прогноз погоды по России и другим странам хСССР на ноябрь-декабрь 2019 года и Предварительный прогноз на зиму 2019/2020 годов

04.11.2019
Опубликован Долгосрочный прогноз погоды по России и другим странам хСССР на ноябрь 2019 года
Сравнение прогнозируемой аномалии приземной температуры воздуха на ноябрь 2019 года по разным моделям
Предварительный прогноз на зиму 2019/2020 года




Погода в Туле - сегодня

Время (UTC), дата Ветер
(°,м/с) 
Видим.   Явления Облачность Т
(°С)
Тd
(°С)
f(%) Тe
(°С)
Pmin
(гПа)
dP
(гПа)
Po
(мм)
O2
(г/м3)
Тmin Tmax R s Состояние
почвы
00 18.11.19 180 (Ю) 1000 м  дымка  10/10 300 м 
[St]
-0.6 -1 97 -1  1031.9  -0.5  754  305           
03 18.11.19 190 (Ю) 0500 м  туман  ?/?  
-0.7 -1 98 1031.3  -0.6  754  305  -0.8         
06 18.11.19 140 (ЮВ) 0500 м  туман  ?/?  
-0.8 -1.1 98 1031.3  754  305  -0.9         
09 18.11.19 190 (Ю) 0500 м  туман  ?/?  
-0.2 -0.5 98 -1  1031.1  -0.1  754  304           
12 18.11.19 тихо ()   2000 м  дымка{туман}  10/10 300 м 
[St]
+0.8 +0.5 98 +1  1030.3  -0.7  753  303           
15 18.11.19 080 (В) 2000 м  дымка  10/10 300 м 
[St]
+0.8 +0.5 98 +1  1030.6  0.2  753  303           
18 18.11.19 100 (В) 2000 м  дымка  10/10 300 м 
[St]
+0.6 +0.3 98 1030.6  0.1  754  303    +1       
21 18.11.19 110 (В) 2000 м  дымка  10/10 300 м 
[St]
+0.7 +0.4 98 1031  0.3  754  303           
00 19.11.19 110 (В) 4000 м  дымка  10/10 300 м 
[St]
+0.8 +0.4 97 +1  1031.6  0.6  754  303           
03 19.11.19 120 (ЮВ) 4000 м  дымка  10/10 300 м 
[St]
+1.2 +0.7 96 +1  1031.2  -0.3  754  302  +0.6         
06 19.11.19 090 (В) 4000 м  дымка  10/10 300 м 
[St]
+1.4 +0.8 96 +2  1032.1  0.8  755  302  +0.6         
09 19.11.19 100 (В) 4000 м  дымка  10/10 300 м 
[St]
+1.9 +1.1 94 +1  1032.4  0.4  755  302           
12 19.11.19 110 (В) 4000 м  дымка  10/10 300 м 
[St]
+2.3 +1.2 92 +2  1032.6  0.2  755  302           
15 19.11.19 120 (ЮВ) 4000 м  дымка  10/10 300 м 
[St]
+2.3 +1.3 93 +2  1033.3  0.7  756  302           
18 19.11.19 080 (В) 1000 м  дымка  10/10 300 м 
[St]
+2.2 +1.8 97 +3  1033.7  0.4  756  302    +2.4       
21 19.11.19 100 (В) 1000 м  дымка  10/10 300 м 
[St]
+2.4 +2 97 +3  1034.6  0.9  757  302           
00 20.11.19 080 (В) 1000 м  дымка  10/10 300 м 
[St]
+3 +2.6 97 +4  1035.4  0.8  757  301           
03 20.11.19 100 (В) 2000 м  дымка  10/10 300 м 
[St]
+3.8 +3 94 +3  1036.3  758  301  +2.1         
06 20.11.19 080 (В) 10 км    10/10 600 м 
[Sc]
+3.9 +2.6 91 +3  1037.5  1.2  759  301  +2.2         
09 20.11.19 070 (В) 4000 м  дымка  10/10 300 м 
[St]
+1 +0.4 96 -1  1040  2.1  760  305           
12 20.11.19 070 (В) 10 км    10/10 600 м 
[St]
+0 -1.6 89 -1  1041.6  1.5  761  307           
15 20.11.19 070 (В) 10 км    10/10 600 м 
[Sc]
-1.1 -4.7 76 -2  1043.6  1.8  763  309           
18 20.11.19 070 (В) 10 км    ясно 
-3.8 -7.5 75 -5  1045.4  1.5  764  313    +3.9       
21 20.11.19 080 (В) 10 км    ясно 
-6.4 -11.5 67 -9  1047  1.3  765  317           
00 21.11.19 100 (В) 10 км    ясно 
-7.8 -11.3 76 -11  1047.9  0.7  765  319           
Время (UTC), дата Ветер
(°,м/с) 
Видим.   Явления Облачность Т
(°С)
Тd
(°С)
f(%) Тe
(°С)
Pmin
(гПа)
dP
(гПа)
Po
(мм)
O2
(г/м3)
Тmin Tmax R s Состояние
почвы

Для получения пояснительной информации подведите курсор к названию столбца.

ПОГОДА в Туле - архив

Всё, что Вы хотите узнать о погоде в Туле - удобно и подробно!

Выберите нужную дату (начиная с 1 января 2019* года) и нажмите кнопку "Найти".
Будут отображены архивные сводки погоды по пункту Тула, начиная с указанной даты.


Отображать данные в формате CSV (для использования в таблицах Excel)


Внимание! Наш архив погоды предназначен исключительно для личного некоммерческого использования в познавательных целях. Если Вам необходимы официальные справки о состоянии погоды (для производственных, юридических, коммерческих и т.п. целей), обращайтесь в органы Росгидромета.

*Примечание: данная дата относится к архиву по метеостанциям СССР (Россия, СНГ, Балтия).
Архив по метеостанциям Зарубежной Европы и Азии (кроме Китая) хранится 10 дней, по другим регионам земного шара (Китай, Африка, Америка, Австралия, Океания) - 1 день.

Тула - район местоположения метеостанции


Название, широта, долгота, высота метеостанции:
Тула 54.2°ш. 37.6°д. 203 м над ур. моря [Российская Федерация]

Дополнительная информация

В oтличие oт бoльшинства пoгoдных сайтoв мы публикуем пoдрoбную метеoинфoрмацию в детальнoм прoфессиoнальнoм фoрмате.

Характеристики температуры и влажнoсти вoздуха измеряются на высoте 2 м в тени вдали oт зданий и деревьев.
Скoрoсть ветра измеряется на высoте 10 м (на урoвне рoста челoвека скoрoсть ветра ниже в 1.5-2 раза). Если метеoстанция нахoдится в гoрoде или в лесу, тo скoрoсть ветра занижена на 2-4 м/с пo сравнению с oткрытым местoм. Скoрoсть ветра над акватoриями крупных рек и oзёр, а также на вершинах хoлмoв на 2-5 м/с выше, чем в oбычных услoвиях.
Атмoсфернoе давление в разных тoчках местнoсти мoжет значительнo oтличаться oт давления на метеoстанции, в зависимoсти oт услoвий рельефа (при пoдъёме на 10 м давление пoнижается примернo на 1 мм рт.ст.).